DW8108 Weather Reports


Display with metric or nautical units.
time (UTC)temp
F
wind
direction
speed
MPH
gust
MPH
rain 1hr
in
rain 24hr
in
rain mn
in
humidity
%
barometer
mb
20260831163030 83 0.0 8.0 0.00 0.00 0.00 73 1015.5
20260831161515 82 0.0 6.0 0.00 0.00 0.00 77 1015.3
20260831160011 79 0.0 9.0 0.00 0.00 0.00 81 1015.5
20260831154508 77 0.0 7.0 0.00 0.02 0.00 88 1015.4
20260831153005 74 0.0 3.0 0.00 0.02 0.00 93 1015.5
20260831151559 73 0.0 3.0 0.00 0.02 0.00 92 1015.7
20260831150057 73 0.0 3.0 0.00 0.02 0.00 92 1015.6
20260831144556 72 0.0 6.0 0.00 0.03 0.00 91 1015.5
20260831143110 72 0.0 7.0 0.00 0.03 0.00 92 1015.5
20260831141612 71 0.0 5.0 0.00 0.03 0.00 92 1015.5
20260831140056 71 0.0 0.0 0.00 0.03 0.00 92 1015.6
20260831134601 71 0.0 1.0 0.00 0.07 0.00 91 1015.8
20260831133051 71 0.0 4.0 0.00 0.07 0.00 91 1015.6
20260831131552 71 0.0 7.0 0.00 0.07 0.00 91 1015.3
20260831130054 70 0.0 5.0 0.00 0.07 0.00 90 1015.0
20260831124650 71 0.0 4.0 0.00 0.08 0.00 90 1014.8
20260831123046 71 0.0 6.0 0.00 0.08 0.00 90 1014.7
20260831121545 71 0.0 6.0 0.00 0.08 0.00 90 1014.4
20260831120044 71 0.0 5.0 0.00 0.08 0.00 90 1014.3
20260831114543 70 0.0 5.0 0.00 0.08 0.00 89 1014.2
20260831113042 71 0.0 3.0 0.00 0.08 0.00 89 1014.3
20260831111541 71 0.0 1.0 0.00 0.08 0.00 89 1014.3
20260831110043 71 0.0 6.0 0.00 0.08 0.00 89 1014.0
20260831104541 70 0.0 6.0 0.00 0.08 0.00 90 1013.6
20260831103038 70 0.0 6.0 0.00 0.08 0.00 91 1013.9
20260831101544 70 0.0 5.0 0.00 0.08 0.00 91 1013.8
20260831100041 70 0.0 4.0 0.00 0.08 0.00 92 1014.0
20260831094540 70 0.0 4.0 0.00 0.08 0.00 92 1014.1
20260831093036 70 0.0 5.0 0.00 0.08 0.00 92 1013.9
20260831091535 70 0.0 4.0 0.00 0.08 0.00 92 1014.0
20260831090040 70 0.0 4.0 0.00 0.08 0.00 93 1014.1
20260831084533 70 0.0 4.0 0.00 0.09 0.00 93 1014.1
20260831083031 70 0.0 4.0 0.00 0.09 0.00 93 1013.9
20260831081531 70 0.0 4.0 0.00 0.09 0.00 93 1014.1
20260831080030 71 0.0 5.0 0.00 0.09 0.00 93 1014.0
20260831074529 71 0.0 4.0 0.00 0.09 0.00 92 1014.2
20260831073029 71 0.0 5.0 0.00 0.09 0.00 93 1014.3
20260831071526 71 0.0 3.0 0.00 0.09 0.00 93 1014.4
20260831070033 71 0.0 4.0 0.00 0.09 0.00 93 1014.3
20260831064525 71 0.0 4.0 0.00 0.09 0.00 93 1014.3
20260831063023 72 0.0 5.0 0.00 0.09 0.00 93 1014.3
20260831061522 72 0.0 5.0 0.00 0.09 0.00 93 1014.2
20260831060020 72 0.0 4.0 0.00 0.09 0.00 93 1014.3
20260831054522 72 0.0 4.0 0.00 0.09 0.00 93 1014.5
20260831053019 72 0.0 5.0 0.00 0.09 0.00 94 1014.2
20260831051525 72 0.0 5.0 0.00 0.09 0.00 94 1014.2
20260831050015 72 0.0 5.0 0.00 0.09 0.00 94 1014.4
20260831044515 73 0.0 5.0 0.00 0.09 0.09 94 1014.4
20260831043014 73 0.0 4.0 0.00 0.09 0.09 94 1014.7
20260831041522 73 0.0 3.0 0.00 0.09 0.09 94 1014.8
20260831040012 73 0.0 3.0 0.00 0.09 0.09 94 1014.8
20260831034512 73 0.0 4.0 0.00 0.09 0.09 94 1014.8
20260831033011 73 0.0 3.0 0.00 0.09 0.09 94 1015.2
20260831031511 73 0.0 4.0 0.00 0.09 0.09 93 1015.3
20260831030012 74 0.0 0.0 0.00 0.09 0.09 93 1015.2
20260831024509 74 0.0 0.0 0.00 0.09 0.09 93 1015.2
20260831023009 74 0.0 0.0 0.00 0.09 0.09 92 1015.2
20260831021508 74 0.0 3.0 0.00 0.09 0.09 92 1014.9
20260831020008 75 0.0 5.0 0.00 0.09 0.09 92 1014.6
20260831014507 75 0.0 5.0 0.00 0.09 0.09 92 1014.3
20260831013006 75 0.0 7.0 0.00 0.09 0.09 91 1014.1
20260831011506 75 0.0 4.0 0.00 0.09 0.09 90 1014.7
20260831010004 76 0.0 4.0 0.00 0.09 0.09 90 1014.6
20260831004503 76 0.0 3.0 0.00 0.09 0.09 89 1014.6
20260831003004 77 0.0 0.0 0.00 0.09 0.09 88 1014.8
20260831001503 77 0.0 0.0 0.00 0.09 0.09 88 1014.8
20260831000003 78 0.0 0.0 0.00 0.09 0.09 87 1014.9
20260830234502 78 0.0 0.0 0.00 0.09 0.09 86 1015.0
20260830233001 79 0.0 2.0 0.00 0.09 0.09 86 1014.9
20260830231501 80 0.0 5.0 0.00 0.09 0.09 86 1014.7
20260830230000 80 0.0 3.0 0.00 0.09 0.09 85 1015.0
20260830224600 81 0.0 0.0 0.00 0.09 0.09 84 1015.2
20260830223102 81 0.0 2.0 0.00 0.09 0.09 83 1015.2
20260830221559 81 0.0 5.0 0.00 0.09 0.09 82 1015.2
20260830220059 81 0.0 4.0 0.00 0.09 0.09 83 1015.0
20260830214558 81 0.0 2.0 0.00 0.09 0.09 83 1015.2
20260830213057 80 0.0 0.0 0.00 0.09 0.09 83 1015.2
20260830211557 80 0.0 0.0 0.00 0.09 0.09 81 1015.3
20260830210056 80 0.0 5.0 0.00 0.09 0.09 78 1015.4
20260830204555 80 0.0 6.0 0.00 0.09 0.09 77 1015.3
20260830203115 81 0.0 9.0 0.00 0.09 0.09 75 1015.3
20260830201559 82 0.0 10.0 0.00 0.09 0.09 74 1015.2
20260830200053 82 0.0 13.0 0.00 0.09 0.09 73 1015.1
20260830194552 82 0.0 13.0 0.00 0.09 0.09 74 1015.0
20260830193048 81 0.0 13.0 0.00 0.09 0.09 77 1014.8
20260830191549 79 0.0 11.0 0.00 0.09 0.09 78 1014.8
20260830190043 79 0.0 10.0 0.00 0.09 0.09 80 1014.6
20260830184539 78 0.0 12.0 0.00 0.09 0.09 81 1014.6
20260830183035 78 0.0 14.0 0.00 0.09 0.09 82 1014.8
20260830181536 77 0.0 9.0 0.00 0.09 0.09 83 1015.2
20260830180035 77 0.0 10.0 0.00 0.09 0.09 83 1015.4
20260830174534 77 0.0 12.0 0.00 0.09 0.09 82 1015.7
20260830173039 76 0.0 12.0 0.00 0.09 0.09 85 1015.8
20260830171525 74 0.0 9.0 0.00 0.09 0.09 91 1015.8
20260830170020 72 0.0 11.0 0.00 0.09 0.09 93 1015.1
20260830164530 71 0.0 13.0 0.00 0.09 0.09 95 1015.0